Regional Weather Roundup
Issued by NWS

Home | Current Version | Previous Version | Graphics & Text | Print | Product List | Glossary Off
Versions: 1 2 3 4 5 6 7 8 9 10 11 12 13 14 15 16 17 18 19 20 21 22 23 24 25 26 27 28 29 30 31 32 33 34 35 36 37 38 39 40 41 42 43 44 45 46 47 48 49 50

681
ASUS43 KDMX 030301
RWRIA

WEATHER ROUNDUP FOR IOWA
NATIONAL WEATHER SERVICE DES MOINES IA
900 PM CST FRI DEC 02 2016

NOTE: "FAIR" INDICATES FEW OR NO CLOUDS BELOW 12,000 FEET WITH NO
SIGNIFICANT WEATHER AND/OR OBSTRUCTIONS TO VISIBILITY.

* - THESE STATIONS ARE NOT NWS STATIONS...THUS NOT UNDER NWS
QUALITY CONTROL.  THEY ALSO DO NOT REPORT WEATHER SUCH
AS PRECIPITATION OR FOG.

IAZ001>003-012>014-020>022-031>034-043>046-030400-
   NORTHWEST IOWA

CITY           SKY/WX    TMP DP  RH WIND       PRES   REMARKS
CARROLL *      CLOUDY    34  34 100 CALM      30.32F
CHEROKEE *     CLOUDY    33  31  93 CALM      30.31F
DENISON *      CLOUDY    34  32  93 CALM      30.30F
LE MARS *      CLOUDY    34  28  80 CALM      30.33S
ORANGE CITY *  CLOUDY    32  28  86 CALM      30.31S
SHELDON *      CLOUDY    30  28  93 NW7       30.30R WCI  23
SIOUX CITY     CLOUDY    35  31  85 CALM      30.33F
SPENCER        CLOUDY    32  26  78 W13       30.31S WCI  22
STORM LAKE *   CLOUDY    32  30  93 CALM      30.31S
$$

IAZ055>058-069>071-079>083-090>094-030400-
   SOUTHWEST IOWA

CITY           SKY/WX    TMP DP  RH WIND       PRES   REMARKS
ATLANTIC *     CLOUDY    36  30  80 W5        30.33F WCI  32
AUDUBON *      CLOUDY    34  30  86 CALM      30.33S
CLARINDA *       N/A     28  28 100 CALM      30.36S
COUNCIL BLFS * CLEAR     34  28  80 CALM      30.32S
CRESTON *      CLEAR     32  28  86 N5        30.33F WCI  27
HARLAN  *      CLOUDY    36  30  80 CALM      30.36S
LAMONI         CLEAR     32  27  81 N5        30.33S WCI  27
RED OAK *      CLOUDY    27  25  93 CALM      30.34S
SHENANDOAH *   CLEAR     30  28  93 NE3       30.35S
$$

IAZ047>049-059>061-072>074-084-030400-
   CENTRAL IOWA

CITY           SKY/WX    TMP DP  RH WIND       PRES   REMARKS
AMES           CLOUDY    34  29  82 N5        30.34S WCI  30
ANKENY *       CLOUDY    36  36 100 CALM      30.36R
BOONE *        CLOUDY    34  28  80 NE3       30.33S
CHARITON *       N/A     36  30  80 NW5       30.34R WCI  32
DES MOINES     CLOUDY    38  33  82 CALM      30.35R
GRINNELL*      CLOUDY    33  30  86 NE3       30.35S
KNOXVILLE *    CLOUDY    37  32  81 N5        30.33R WCI  34
MARSHALLTOWN   CLOUDY    33  30  88 CALM      30.33S
NEWTON *       CLOUDY    36  30  80 N5        30.34R WCI  32
PELLA *        CLOUDY    36  32  85 CALM      30.36R
PERRY *        CLOUDY    35  35  99 CALM      30.34S
$$

IAZ004>006-015-016-023>025-035-036-030400-
   NORTH CENTRAL IOWA

CITY           SKY/WX    TMP DP  RH WIND       PRES   REMARKS
ALGONA *       CLOUDY    32  27  80 CALM      30.32R
CLARION *      CLOUDY    32  27  80 CALM      30.32S
ESTHERVILLE    CLOUDY    30  25  81 NW8       30.30S WCI  22
FORT DODGE *   CLOUDY    32  23  69 CALM      30.34R
MASON CITY     CLOUDY    29  22  75 N8        30.33S WCI  21
WEBSTER CITY * CLOUDY    32  28  86 CALM      30.31S
IOWA FALLS *   CLOUDY    33  27  77 NW9       30.34R WCI  25
$$

IAZ007>011-017>019-026>030-037>042-050>054-066-030400-
   NORTHEAST IOWA

CITY           SKY/WX    TMP DP  RH WIND       PRES   REMARKS
CEDAR RAPIDS   CLOUDY    31  29  92 W5        30.33S WCI  26
CHARLES CITY * CLOUDY    30  25  80 NW10      30.32S WCI  21
CLINTON *      CLOUDY    33  27  78 NW8       30.34R WCI  26
DECORAH *      CLOUDY    30  23  74 VRB5      30.31R WCI  25
DUBUQUE        CLOUDY    31  24  75 W8        30.32R WCI  23
MONTICELLO *   CLOUDY    32  25  74 W9G15     30.33S WCI  24
OELWEIN *      CLOUDY    30  25  80 N7        30.32F WCI  23
WATERLOO       CLOUDY    32  26  78 CALM      30.33S
$$

IAZ064-065-067-068-078-030400-
   EAST CENTRAL IOWA

CITY           SKY/WX    TMP DP  RH WIND       PRES   REMARKS
DAVENPORT      CLOUDY    33  27  78 NW7       30.34R WCI  27
IOWA CITY      CLOUDY    35  26  69 NW6       30.37R WCI  30
MUSCATINE *    CLOUDY    36  27  69 CALM      30.37R
QUAD CITIES    CLOUDY    36  25  64 NW8       30.34R WCI  30
$$

IAZ062-063-075>077-085>089-095>099-030400-
   SOUTHEAST IOWA

CITY           SKY/WX    TMP DP  RH WIND       PRES   REMARKS
BURLINGTON     CLOUDY    37  31  78 N5        30.35R WCI  33
FAIRFIELD *    CLOUDY    36  30  80 NE7       30.34S WCI  30
FORT MADISON * CLOUDY    37  30  75 NE3       30.35S
KEOKUK *       CLOUDY    39  32  75 CALM      30.33F
OSKALOOSA *    CLOUDY    36  31  83 N3        30.35S
CENTERVILLE *    N/A     34  30  86 CALM      30.34S
OTTUMWA        CLOUDY    37  29  72 NE5       30.34S WCI  33
WASHINGTON *   CLOUDY    36  30  80 N6        30.36S WCI  31
$$

ABBREVIATIONS USED IN REMARKS
   TC - TEMPERATURES IN CELSIUS
  WCI - WIND CHILL INDEX
   HX - HEAT INDEX
  VSB - VISIBILITY
$$





USA.gov is the U.S. government's official web portal to all federal, state and local government web resources and services.